START_TIME,STEP,MOV.,P11,t_acc.,P23,t_acc.,P27,t_acc.,A4,t_acc.
1979-08-03 18:00:21.820 ,0,1,2.,4.8,0.,4.8,0.,4.8,0.,4.8
1979-08-03 18:00:26.620 ,0,1,2.,4.8,0.,4.8,0.,4.8,0.,4.8
1979-08-03 18:00:31.420 ,0,1,2.,4.8,0.,4.8,1.,4.8,0.,4.8
1979-08-03 18:00:36.220 ,0,1,0.,4.8,0.,4.8,0.,4.8,0.,4.8
1979-08-03 18:00:41.020 ,0,1,0.,4.8,0.,4.8,0.,4.8,0.,4.8
1979-08-03 18:00:45.820 ,4,1,0.,4.8,0.,4.8,0.,4.8,0.,4.8
1979-08-03 18:00:50.620 ,4,1,1.,4.8,0.,4.8,0.,4.8,0.,4.8
1979-08-03 18:00:55.420 ,4,1,2.,4.8,0.,4.8,0.,4.8,0.,4.8
1979-08-03 18:01:00.220 ,4,1,2.,4.8,0.,4.8,0.,4.8,0.,4.8
1979-08-03 18:01:05.020 ,4,1,1.,4.8,0.,4.8,0.,4.8,0.,4.8
1979-08-03 18:01:09.820 ,7,1,1.,4.8,0.,4.8,0.,4.8,0.,4.8
1979-08-03 18:01:14.620 ,7,1,0.,4.8,0.,4.8,0.,4.8,0.,4.8
1979-08-03 18:01:19.420 ,7,1,0.,4.8,0.,4.8,0.,4.8,0.,4.8
1979-08-03 18:01:24.220 ,7,1,0.,4.8,0.,4.8,0.,4.8,0.,4.8
1979-08-03 18:01:29.020 ,7,1,0.,4.8,0.,4.8,0.,4.8,0.,4.8
1979-08-03 18:01:33.820 ,3,1,1.,4.8,0.,4.8,0.,4.8,0.,4.8
1979-08-03 18:01:38.620 ,3,1,0.,4.8,0.,4.8,1.,4.8,0.,4.8
1979-08-03 18:01:43.420 ,3,1,0.,4.8,0.,4.8,0.,4.8,0.,4.8
1979-08-03 18:01:48.220 ,3,1,0.,4.8,0.,4.8,1.,4.8,0.,4.8
1979-08-03 18:01:53.020 ,3,1,2.,4.8,0.,4.8,0.,4.8,0.,4.8
1979-08-03 18:01:57.820 ,0,1,0.,4.8,0.,4.8,1.,4.8,0.,4.8
1979-08-03 18:02:02.620 ,0,1,0.,4.8,0.,4.8,0.,4.8,0.,4.8
1979-08-03 18:02:07.420 ,0,1,0.,4.8,0.,4.8,0.,4.8,0.,4.8
1979-08-03 18:02:12.220 ,0,1,1.,4.8,0.,4.8,1.,4.8,0.,4.8
1979-08-03 18:02:17.020 ,0,1,1.,4.8,0.,4.8,0.,4.8,0.,4.8
1979-08-03 18:02:21.820 ,4,1,0.,4.8,1.,4.8,0.,4.8,0.,4.8
1979-08-03 18:02:26.620 ,4,1,0.,4.8,0.,4.8,0.,4.8,0.,4.8
1979-08-03 18:02:31.420 ,4,1,1.,4.8,0.,4.8,0.,4.8,0.,4.8
1979-08-03 18:02:36.220 ,4,1,0.,4.8,0.,4.8,0.,4.8,0.,4.8
1979-08-03 18:02:41.020 ,4,1,1.,4.8,0.,4.8,0.,4.8,0.,4.8
1979-08-03 18:02:45.820 ,7,1,0.,4.8,0.,4.8,0.,4.8,0.,4.8
1979-08-03 18:02:50.620 ,7,1,1.,4.8,0.,4.8,0.,4.8,0.,4.8
1979-08-03 18:02:55.420 ,7,1,1.,4.8,0.,4.8,0.,4.8,0.,4.8
1979-08-03 18:03:00.220 ,7,1,0.,4.8,0.,4.8,0.,4.8,0.,4.8
1979-08-03 18:03:05.020 ,7,1,0.,4.8,0.,4.8,0.,4.8,0.,4.8
1979-08-03 18:03:09.820 ,3,1,0.,4.8,0.,4.8,0.,4.8,0.,4.8
1979-08-03 18:03:14.620 ,3,1,0.,4.8,0.,4.8,0.,4.8,0.,4.8
1979-08-03 18:03:19.420 ,3,1,1.,4.8,0.,4.8,0.,4.8,0.,4.8
1979-08-03 18:03:24.220 ,3,1,1.,4.8,0.,4.8,0.,4.8,0.,4.8
1979-08-03 18:03:29.020 ,3,1,0.,4.8,0.,4.8,0.,4.8,0.,4.8
1979-08-03 18:03:33.820 ,0,1,0.,4.8,0.,4.8,1.,4.8,0.,4.8
1979-08-03 18:03:38.620 ,0,1,0.,4.8,0.,4.8,0.,4.8,0.,4.8
1979-08-03 18:03:43.420 ,0,1,0.,4.8,0.,4.8,0.,4.8,0.,4.8
1979-08-03 18:03:48.220 ,0,1,1.,4.8,0.,4.8,0.,4.8,0.,4.8
1979-08-03 18:03:53.020 ,0,1,0.,4.8,1.,4.8,0.,4.8,0.,4.8
1979-08-03 18:03:57.820 ,4,1,2.,4.8,0.,4.8,1.,4.8,0.,4.8
1979-08-03 18:04:02.620 ,4,1,2.,4.8,0.,4.8,0.,4.8,0.,4.8
1979-08-03 18:04:07.420 ,4,1,0.,4.8,0.,4.8,0.,4.8,0.,4.8
1979-08-03 18:04:12.220 ,4,1,0.,4.8,0.,4.8,1.,4.8,0.,4.8
1979-08-03 18:04:17.020 ,4,1,0.,4.8,0.,4.8,0.,4.8,0.,4.8
1979-08-03 18:04:21.820 ,7,1,0.,4.8,0.,4.8,0.,4.8,0.,4.8
1979-08-03 18:04:26.620 ,7,1,1.,4.8,0.,4.8,0.,4.8,0.,4.8
1979-08-03 18:04:31.420 ,7,1,0.,4.8,0.,4.8,1.,4.8,0.,4.8
1979-08-03 18:04:36.220 ,7,1,0.,4.8,0.,4.8,0.,4.8,0.,4.8
1979-08-03 18:04:41.020 ,7,1,0.,4.8,0.,4.8,0.,4.8,0.,4.8
1979-08-03 18:04:45.820 ,3,1,0.,4.8,0.,4.8,0.,4.8,0.,4.8
1979-08-03 18:04:50.620 ,3,1,2.,4.8,0.,4.8,0.,4.8,0.,4.8
1979-08-03 18:04:55.420 ,3,1,0.,4.8,0.,4.8,0.,4.8,0.,4.8
1979-08-03 18:05:00.220 ,3,1,0.,4.8,0.,4.8,0.,4.8,0.,4.8
1979-08-03 18:05:05.020 ,3,1,0.,4.8,0.,4.8,0.,4.8,0.,4.8
1979-08-03 18:05:09.820 ,0,1,1.,4.8,0.,4.8,0.,4.8,0.,4.8
1979-08-03 18:05:14.620 ,0,1,0.,4.8,0.,4.8,0.,4.8,0.,4.8
1979-08-03 18:05:19.420 ,0,1,1.,4.8,0.,4.8,0.,4.8,0.,4.8
1979-08-03 18:05:24.220 ,0,1,2.,4.8,0.,4.8,0.,4.8,0.,4.8
1979-08-03 18:05:29.020 ,0,1,1.,4.8,0.,4.8,0.,4.8,0.,4.8
1979-08-03 18:05:33.820 ,0,0,0.,4.8,0.,4.8,0.,4.8,0.,4.8
1979-08-03 18:05:38.620 ,0,0,4.,4.8,0.,4.8,0.,4.8,0.,4.8
1979-08-03 18:05:43.420 ,0,0,1.,4.8,0.,4.8,0.,4.8,0.,4.8
1979-08-03 18:05:48.220 ,0,0,0.,4.8,0.,4.8,0.,4.8,0.,4.8
1979-08-03 18:05:53.020 ,0,0,0.,4.8,0.,4.8,0.,4.8,0.,4.8
1979-08-03 18:05:57.820 ,0,0,0.,4.8,0.,4.8,0.,4.8,0.,4.8
1979-08-03 18:06:02.620 ,0,0,1.,4.8,0.,4.8,0.,4.8,0.,4.8
1979-08-03 18:06:07.420 ,0,0,0.,4.8,0.,4.8,0.,4.8,0.,4.8
1979-08-03 18:06:12.220 ,0,0,0.,4.8,0.,4.8,0.,4.8,0.,4.8
1979-08-03 18:06:17.020 ,0,0,1.,4.8,0.,4.8,0.,4.8,0.,4.8
1979-08-03 18:06:21.820 ,5,0,1.,4.8,0.,4.8,0.,4.8,0.,4.8
1979-08-03 18:06:26.620 ,5,0,1.,4.8,0.,4.8,0.,4.8,0.,4.8
1979-08-03 18:06:31.420 ,5,0,2.,4.8,0.,4.8,0.,4.8,0.,4.8
1979-08-03 18:06:36.220 ,5,0,0.,4.8,0.,4.8,0.,4.8,0.,4.8
1979-08-03 18:06:41.020 ,5,0,0.,4.8,0.,4.8,0.,4.8,0.,4.8
1979-08-03 18:06:45.820 ,5,0,1.,4.8,0.,4.8,0.,4.8,0.,4.8
1979-08-03 18:06:50.620 ,5,0,0.,4.8,0.,4.8,1.,4.8,0.,4.8
1979-08-03 18:06:55.420 ,5,0,0.,4.8,0.,4.8,0.,4.8,0.,4.8
1979-08-03 18:07:00.220 ,5,0,2.,4.8,0.,4.8,0.,4.8,0.,4.8
1979-08-03 18:07:05.020 ,5,0,2.,4.8,0.,4.8,0.,4.8,0.,4.8
1979-08-03 18:07:09.820 ,4,0,1.,4.8,0.,4.8,0.,4.8,0.,4.8
1979-08-03 18:07:14.620 ,4,0,0.,4.8,0.,4.8,0.,4.8,0.,4.8
1979-08-03 18:07:19.420 ,4,0,1.,4.8,0.,4.8,0.,4.8,0.,4.8
1979-08-03 18:07:24.220 ,4,0,1.,4.8,0.,4.8,0.,4.8,0.,4.8
1979-08-03 18:07:29.020 ,4,0,0.,4.8,1.,4.8,0.,4.8,0.,4.8
1979-08-03 18:07:33.820 ,4,0,0.,4.8,0.,4.8,0.,4.8,0.,4.8
1979-08-03 18:07:38.620 ,4,0,0.,4.8,0.,4.8,1.,4.8,0.,4.8
1979-08-03 18:07:43.420 ,4,0,1.,4.8,0.,4.8,0.,4.8,0.,4.8
1979-08-03 18:07:48.220 ,4,0,0.,4.8,0.,4.8,0.,4.8,0.,4.8
1979-08-03 18:07:53.020 ,4,0,1.,4.8,0.,4.8,1.,4.8,0.,4.8
1979-08-03 18:07:57.820 ,3,0,0.,4.8,0.,4.8,0.,4.8,0.,4.8
1979-08-03 18:08:02.620 ,3,0,1.,4.8,0.,4.8,0.,4.8,0.,4.8
1979-08-03 18:08:07.420 ,3,0,3.,4.8,0.,4.8,0.,4.8,0.,4.8
1979-08-03 18:08:12.220 ,3,0,0.,4.8,0.,4.8,0.,4.8,0.,4.8
1979-08-03 18:08:17.020 ,3,0,1.,4.8,0.,4.8,0.,4.8,0.,4.8
1979-08-03 18:08:21.820 ,3,0,0.,4.8,0.,4.8,0.,4.8,0.,4.8
1979-08-03 18:08:26.620 ,3,0,0.,4.8,0.,4.8,0.,4.8,0.,4.8
1979-08-03 18:08:31.420 ,3,0,1.,4.8,0.,4.8,0.,4.8,0.,4.8
1979-08-03 18:08:36.220 ,3,0,1.,4.8,0.,4.8,0.,4.8,0.,4.8
1979-08-03 18:08:41.020 ,3,0,1.,4.8,0.,4.8,0.,4.8,0.,4.8
1979-08-03 18:08:45.820 ,2,0,2.,4.8,0.,4.8,0.,4.8,0.,4.8
1979-08-03 18:08:50.620 ,2,0,0.,4.8,0.,4.8,0.,4.8,0.,4.8
1979-08-03 18:08:55.420 ,2,0,0.,4.8,0.,4.8,0.,4.8,0.,4.8
1979-08-03 18:09:00.220 ,2,0,0.,4.8,1.,4.8,1.,4.8,0.,4.8
1979-08-03 18:09:05.020 ,2,0,0.,4.8,0.,4.8,0.,4.8,0.,4.8
1979-08-03 18:09:09.820 ,2,0,0.,4.8,0.,4.8,0.,4.8,0.,4.8
1979-08-03 18:09:14.620 ,2,0,0.,4.8,0.,4.8,0.,4.8,0.,4.8
1979-08-03 18:09:19.420 ,2,0,1.,4.8,0.,4.8,0.,4.8,0.,4.8
1979-08-03 18:09:24.220 ,2,0,0.,4.8,0.,4.8,0.,4.8,0.,4.8
1979-08-03 18:09:29.020 ,2,0,2.,4.8,0.,4.8,0.,4.8,0.,4.8
1979-08-03 18:09:33.820 ,1,0,0.,4.8,1.,4.8,0.,4.8,0.,4.8
1979-08-03 18:09:38.620 ,1,0,1.,4.8,0.,4.8,0.,4.8,0.,4.8
1979-08-03 18:09:43.420 ,1,0,0.,4.8,0.,4.8,0.,4.8,0.,4.8
1979-08-03 18:09:48.220 ,1,0,1.,4.8,0.,4.8,0.,4.8,0.,4.8
1979-08-03 18:09:53.020 ,1,0,1.,4.8,0.,4.8,0.,4.8,0.,4.8
1979-08-03 18:09:57.820 ,1,0,1.,4.8,0.,4.8,0.,4.8,0.,4.8
1979-08-03 18:10:02.620 ,1,0,0.,4.8,0.,4.8,0.,4.8,0.,4.8
1979-08-03 18:10:07.420 ,1,0,0.,4.8,0.,4.8,0.,4.8,0.,4.8
1979-08-03 18:10:12.220 ,1,0,0.,4.8,0.,4.8,0.,4.8,0.,4.8
1979-08-03 18:10:17.020 ,1,0,0.,4.8,0.,4.8,1.,4.8,0.,4.8
1979-08-03 18:10:21.820 ,0,0,1.,4.8,0.,4.8,0.,4.8,0.,4.8
1979-08-03 18:10:26.620 ,0,0,0.,4.8,0.,4.8,0.,4.8,0.,4.8
1979-08-03 18:10:31.420 ,0,0,1.,4.8,0.,4.8,1.,4.8,0.,4.8
1979-08-03 18:10:36.220 ,0,0,2.,4.8,0.,4.8,0.,4.8,0.,4.8
1979-08-03 18:10:41.020 ,0,0,0.,4.8,0.,4.8,0.,4.8,0.,4.8
1979-08-03 18:10:45.820 ,0,0,1.,4.8,1.,4.8,0.,4.8,0.,4.8
1979-08-03 18:10:50.620 ,0,0,1.,4.8,0.,4.8,0.,4.8,0.,4.8
1979-08-03 18:10:55.420 ,0,0,0.,4.8,0.,4.8,1.,4.8,0.,4.8
1979-08-03 18:11:00.220 ,0,0,0.,4.8,0.,4.8,0.,4.8,0.,4.8
1979-08-03 18:11:05.020 ,0,0,1.,4.8,0.,4.8,0.,4.8,0.,4.8
1979-08-03 18:11:09.820 ,0,0,0.,4.8,0.,4.8,0.,4.8,0.,4.8
1979-08-03 18:11:14.620 ,0,0,0.,4.8,0.,4.8,0.,4.8,0.,4.8
1979-08-03 18:11:19.420 ,0,0,1.,4.8,0.,4.8,1.,4.8,0.,4.8
1979-08-03 18:11:24.220 ,0,0,0.,4.8,0.,4.8,0.,4.8,0.,4.8
1979-08-03 18:11:29.020 ,0,0,0.,4.8,0.,4.8,0.,4.8,0.,4.8
1979-08-03 18:11:33.820 ,0,0,1.,4.8,0.,4.8,0.,4.8,1.,4.8
1979-08-03 18:11:38.620 ,0,0,0.,4.8,0.,4.8,0.,4.8,0.,4.8
1979-08-03 18:11:43.420 ,0,0,0.,4.8,0.,4.8,1.,4.8,0.,4.8
1979-08-03 18:11:48.220 ,0,0,1.,4.8,0.,4.8,0.,4.8,0.,4.8
1979-08-03 18:11:53.020 ,0,0,0.,4.8,1.,4.8,0.,4.8,0.,4.8
1979-08-03 18:11:57.820 ,1,0,0.,4.8,0.,4.8,0.,4.8,0.,4.8
1979-08-03 18:12:02.620 ,1,0,1.,4.8,0.,4.8,0.,4.8,0.,4.8
1979-08-03 18:12:07.420 ,1,0,3.,4.8,0.,4.8,0.,4.8,0.,4.8
1979-08-03 18:12:12.220 ,1,0,0.,4.8,0.,4.8,0.,4.8,0.,4.8
1979-08-03 18:12:17.020 ,1,0,1.,4.8,0.,4.8,0.,4.8,0.,4.8
1979-08-03 18:12:21.820 ,1,0,1.,4.8,0.,4.8,0.,4.8,0.,4.8
1979-08-03 18:12:26.620 ,1,0,1.,4.8,0.,4.8,0.,4.8,0.,4.8
1979-08-03 18:12:31.420 ,1,0,0.,4.8,0.,4.8,0.,4.8,0.,4.8
1979-08-03 18:12:36.220 ,1,0,0.,4.8,0.,4.8,1.,4.8,0.,4.8
1979-08-03 18:12:41.020 ,1,0,1.,4.8,0.,4.8,0.,4.8,0.,4.8
1979-08-03 18:12:45.820 ,2,0,1.,4.8,0.,4.8,0.,4.8,0.,4.8
1979-08-03 18:12:50.620 ,2,0,0.,4.8,0.,4.8,0.,4.8,0.,4.8
1979-08-03 18:12:55.420 ,2,0,0.,4.8,0.,4.8,0.,4.8,0.,4.8
1979-08-03 18:13:00.220 ,2,0,1.,4.8,0.,4.8,0.,4.8,0.,4.8
1979-08-03 18:13:05.020 ,2,0,1.,4.8,0.,4.8,0.,4.8,0.,4.8
1979-08-03 18:13:09.820 ,2,0,0.,4.8,0.,4.8,2.,4.8,0.,4.8
1979-08-03 18:13:14.620 ,2,0,2.,4.8,0.,4.8,0.,4.8,0.,4.8
1979-08-03 18:13:19.420 ,2,0,1.,4.8,0.,4.8,0.,4.8,0.,4.8
1979-08-03 18:13:24.220 ,2,0,1.,4.8,0.,4.8,0.,4.8,0.,4.8
1979-08-03 18:13:29.020 ,2,0,1.,4.8,0.,4.8,0.,4.8,0.,4.8
1979-08-03 18:13:33.820 ,3,0,2.,4.8,0.,4.8,0.,4.8,0.,4.8
1979-08-03 18:13:38.620 ,3,0,1.,4.8,0.,4.8,0.,4.8,0.,4.8
1979-08-03 18:13:43.420 ,3,0,0.,4.8,0.,4.8,1.,4.8,0.,4.8
1979-08-03 18:13:48.220 ,3,0,0.,4.8,0.,4.8,0.,4.8,0.,4.8
1979-08-03 18:13:53.020 ,3,0,0.,4.8,0.,4.8,1.,4.8,0.,4.8
1979-08-03 18:13:57.820 ,3,0,0.,4.8,0.,4.8,0.,4.8,0.,4.8
1979-08-03 18:14:02.620 ,3,0,0.,4.8,0.,4.8,0.,4.8,0.,4.8
1979-08-03 18:14:07.420 ,3,0,1.,4.8,0.,4.8,0.,4.8,0.,4.8
1979-08-03 18:14:12.220 ,3,0,1.,4.8,0.,4.8,0.,4.8,0.,4.8
1979-08-03 18:14:17.020 ,3,0,1.,4.8,0.,4.8,0.,4.8,0.,4.8
1979-08-03 18:14:21.820 ,4,0,1.,4.8,0.,4.8,1.,4.8,0.,4.8
1979-08-03 18:14:26.620 ,4,0,0.,4.8,0.,4.8,0.,4.8,0.,4.8
1979-08-03 18:14:31.420 ,4,0,1.,4.8,0.,4.8,1.,4.8,0.,4.8
1979-08-03 18:14:36.220 ,4,0,1.,4.8,0.,4.8,0.,4.8,0.,4.8
1979-08-03 18:14:41.020 ,4,0,0.,4.8,0.,4.8,0.,4.8,0.,4.8
1979-08-03 18:14:45.820 ,4,0,0.,4.8,0.,4.8,0.,4.8,0.,4.8
1979-08-03 18:14:50.620 ,4,0,1.,4.8,0.,4.8,0.,4.8,0.,4.8
1979-08-03 18:14:55.420 ,4,0,2.,4.8,0.,4.8,0.,4.8,0.,4.8
1979-08-03 18:15:00.220 ,4,0,0.,4.8,0.,4.8,0.,4.8,0.,4.8
1979-08-03 18:15:05.020 ,4,0,0.,4.8,0.,4.8,0.,4.8,0.,4.8
1979-08-03 18:15:09.820 ,5,0,0.,4.8,0.,4.8,1.,4.8,0.,4.8
1979-08-03 18:15:14.620 ,5,0,0.,4.8,0.,4.8,1.,4.8,0.,4.8
1979-08-03 18:15:19.420 ,5,0,0.,4.8,0.,4.8,0.,4.8,0.,4.8
1979-08-03 18:15:24.220 ,5,0,0.,4.8,0.,4.8,0.,4.8,0.,4.8
1979-08-03 18:15:29.020 ,5,0,0.,4.8,0.,4.8,0.,4.8,0.,4.8
1979-08-03 18:15:33.820 ,5,0,0.,4.8,0.,4.8,0.,4.8,0.,4.8
1979-08-03 18:15:38.620 ,5,0,1.,4.8,0.,4.8,0.,4.8,0.,4.8
1979-08-03 18:15:43.420 ,5,0,1.,4.8,0.,4.8,0.,4.8,0.,4.8
1979-08-03 18:15:48.220 ,5,0,0.,4.8,0.,4.8,0.,4.8,0.,4.8
1979-08-03 18:15:53.020 ,5,0,1.,4.8,0.,4.8,1.,4.8,0.,4.8
1979-08-03 18:15:57.820 ,6,0,1.,4.8,0.,4.8,0.,4.8,0.,4.8
1979-08-03 18:16:02.620 ,6,0,1.,4.8,0.,4.8,0.,4.8,0.,4.8
1979-08-03 18:16:07.420 ,6,0,0.,4.8,0.,4.8,0.,4.8,0.,4.8
1979-08-03 18:16:12.220 ,6,0,1.,4.8,0.,4.8,0.,4.8,0.,4.8
1979-08-03 18:16:17.020 ,6,0,1.,4.8,0.,4.8,1.,4.8,0.,4.8
1979-08-03 18:16:21.820 ,6,0,0.,4.8,0.,4.8,0.,4.8,0.,4.8
1979-08-03 18:16:26.620 ,6,0,1.,4.8,0.,4.8,0.,4.8,0.,4.8
1979-08-03 18:16:31.420 ,6,0,0.,4.8,1.,4.8,0.,4.8,0.,4.8
1979-08-03 18:16:36.220 ,6,0,1.,4.8,0.,4.8,0.,4.8,0.,4.8
1979-08-03 18:16:41.020 ,6,0,0.,4.8,0.,4.8,0.,4.8,0.,4.8
1979-08-03 18:16:45.820 ,7,0,1.,4.8,0.,4.8,0.,4.8,0.,4.8
1979-08-03 18:16:50.620 ,7,0,1.,4.8,0.,4.8,0.,4.8,0.,4.8
1979-08-03 18:16:55.420 ,7,0,0.,4.8,0.,4.8,0.,4.8,0.,4.8
1979-08-03 18:17:00.220 ,7,0,0.,4.8,0.,4.8,1.,4.8,0.,4.8
1979-08-03 18:17:05.020 ,7,0,2.,4.8,0.,4.8,0.,4.8,0.,4.8
1979-08-03 18:17:09.820 ,7,0,0.,4.8,0.,4.8,0.,4.8,0.,4.8
1979-08-03 18:17:14.620 ,7,0,1.,4.8,1.,4.8,0.,4.8,0.,4.8
1979-08-03 18:17:19.420 ,7,0,0.,4.8,0.,4.8,0.,4.8,0.,4.8
1979-08-03 18:17:24.220 ,7,0,0.,4.8,0.,4.8,0.,4.8,0.,4.8
1979-08-03 18:17:29.020 ,7,0,1.,4.8,0.,4.8,0.,4.8,0.,4.8
1979-08-03 18:17:33.820 ,7,0,0.,4.8,0.,4.8,0.,4.8,0.,4.8
1979-08-03 18:17:38.620 ,7,0,1.,4.8,0.,4.8,0.,4.8,0.,4.8
1979-08-03 18:17:43.420 ,7,0,0.,4.8,0.,4.8,0.,4.8,0.,4.8
1979-08-03 18:17:48.220 ,7,0,0.,4.8,0.,4.8,0.,4.8,0.,4.8
1979-08-03 18:17:53.020 ,7,0,0.,4.8,0.,4.8,0.,4.8,0.,4.8
1979-08-03 18:17:57.820 ,7,0,1.,4.8,0.,4.8,0.,4.8,0.,4.8
1979-08-03 18:18:02.620 ,7,0,1.,4.8,0.,4.8,0.,4.8,0.,4.8
1979-08-03 18:18:07.420 ,7,0,0.,4.8,0.,4.8,0.,4.8,0.,4.8
1979-08-03 18:18:12.220 ,7,0,0.,4.8,0.,4.8,0.,4.8,0.,4.8
1979-08-03 18:18:17.020 ,7,0,0.,4.8,0.,4.8,0.,4.8,0.,4.8
1979-08-03 18:18:21.820 ,6,0,1.,4.8,0.,4.8,0.,4.8,0.,4.8
1979-08-03 18:18:26.620 ,6,0,2.,4.8,0.,4.8,0.,4.8,0.,4.8
1979-08-03 18:18:31.420 ,6,0,1.,4.8,0.,4.8,0.,4.8,0.,4.8
1979-08-03 18:18:36.220 ,6,0,1.,4.8,0.,4.8,0.,4.8,0.,4.8
1979-08-03 18:18:41.020 ,6,0,1.,4.8,1.,4.8,0.,4.8,0.,4.8
1979-08-03 18:18:45.820 ,6,0,0.,4.8,0.,4.8,0.,4.8,0.,4.8
1979-08-03 18:18:50.620 ,6,0,0.,4.8,0.,4.8,1.,4.8,0.,4.8
1979-08-03 18:18:55.420 ,6,0,1.,4.8,0.,4.8,0.,4.8,0.,4.8
1979-08-03 18:19:00.220 ,6,0,2.,4.8,0.,4.8,0.,4.8,0.,4.8
1979-08-03 18:19:05.020 ,6,0,0.,4.8,0.,4.8,0.,4.8,0.,4.8
1979-08-03 18:19:09.820 ,5,0,0.,4.8,0.,4.8,0.,4.8,0.,4.8
1979-08-03 18:19:14.620 ,5,0,0.,4.8,0.,4.8,0.,4.8,0.,4.8
1979-08-03 18:19:19.420 ,5,0,0.,4.8,1.,4.8,0.,4.8,0.,4.8
1979-08-03 18:19:24.220 ,5,0,3.,4.8,0.,4.8,0.,4.8,0.,4.8
1979-08-03 18:19:29.020 ,5,0,0.,4.8,0.,4.8,0.,4.8,0.,4.8
1979-08-03 18:19:33.820 ,5,0,0.,4.8,0.,4.8,1.,4.8,0.,4.8
1979-08-03 18:19:38.620 ,5,0,1.,4.8,0.,4.8,0.,4.8,0.,4.8
1979-08-03 18:19:43.420 ,5,0,0.,4.8,0.,4.8,0.,4.8,0.,4.8
1979-08-03 18:19:48.220 ,5,0,2.,4.8,0.,4.8,1.,4.8,0.,4.8
1979-08-03 18:19:53.020 ,5,0,1.,4.8,0.,4.8,0.,4.8,0.,4.8
1979-08-03 18:19:57.820 ,4,0,2.,4.8,0.,4.8,0.,4.8,0.,4.8
1979-08-03 18:20:02.620 ,4,0,1.,4.8,0.,4.8,0.,4.8,0.,4.8
1979-08-03 18:20:07.420 ,4,0,1.,4.8,0.,4.8,1.,4.8,0.,4.8
1979-08-03 18:20:12.220 ,4,0,0.,4.8,0.,4.8,0.,4.8,0.,4.8
1979-08-03 18:20:17.020 ,4,0,0.,4.8,0.,4.8,1.,4.8,0.,4.8
1979-08-03 18:20:21.820 ,4,0,0.,4.8,0.,4.8,1.,4.8,0.,4.8
1979-08-03 18:20:26.620 ,4,0,0.,4.8,0.,4.8,0.,4.8,0.,4.8
1979-08-03 18:20:31.420 ,4,0,0.,4.8,0.,4.8,2.,4.8,0.,4.8
1979-08-03 18:20:36.220 ,4,0,1.,4.8,0.,4.8,0.,4.8,0.,4.8
1979-08-03 18:20:41.020 ,4,0,0.,4.8,0.,4.8,0.,4.8,0.,4.8
1979-08-03 18:20:45.820 ,3,0,0.,4.8,0.,4.8,0.,4.8,0.,4.8
1979-08-03 18:20:50.620 ,3,0,0.,4.8,0.,4.8,0.,4.8,0.,4.8
1979-08-03 18:20:55.420 ,3,0,1.,4.8,0.,4.8,0.,4.8,0.,4.8
1979-08-03 18:21:00.220 ,3,0,0.,4.8,0.,4.8,0.,4.8,0.,4.8
1979-08-03 18:21:05.020 ,3,0,1.,4.8,0.,4.8,0.,4.8,0.,4.8
1979-08-03 18:21:09.820 ,3,0,0.,4.8,0.,4.8,0.,4.8,0.,4.8
1979-08-03 18:21:14.620 ,3,0,0.,4.8,0.,4.8,0.,4.8,0.,4.8
1979-08-03 18:21:19.420 ,3,0,2.,4.8,0.,4.8,2.,4.8,0.,4.8
1979-08-03 18:21:24.220 ,3,0,0.,4.8,0.,4.8,0.,4.8,0.,4.8
1979-08-03 18:21:29.020 ,3,0,0.,4.8,0.,4.8,0.,4.8,0.,4.8
1979-08-03 18:21:33.820 ,2,0,0.,4.8,0.,4.8,0.,4.8,0.,4.8
1979-08-03 18:21:38.620 ,2,0,0.,4.8,0.,4.8,0.,4.8,0.,4.8
1979-08-03 18:21:43.420 ,2,0,1.,4.8,0.,4.8,0.,4.8,0.,4.8
1979-08-03 18:21:48.220 ,2,0,0.,4.8,0.,4.8,0.,4.8,0.,4.8
1979-08-03 18:21:53.020 ,2,0,3.,4.8,0.,4.8,0.,4.8,0.,4.8
1979-08-03 18:21:57.820 ,2,0,0.,4.8,0.,4.8,0.,4.8,0.,4.8
1979-08-03 18:22:02.620 ,2,0,0.,4.8,0.,4.8,0.,4.8,0.,4.8
1979-08-03 18:22:07.420 ,2,0,2.,4.8,0.,4.8,0.,4.8,0.,4.8
1979-08-03 18:22:12.220 ,2,0,1.,4.8,0.,4.8,0.,4.8,0.,4.8
1979-08-03 18:22:17.020 ,2,0,1.,4.8,0.,4.8,0.,4.8,0.,4.8
1979-08-03 18:22:21.820 ,1,0,0.,4.8,0.,4.8,0.,4.8,0.,4.8
1979-08-03 18:22:26.620 ,1,0,0.,4.8,0.,4.8,0.,4.8,0.,4.8
1979-08-03 18:22:31.420 ,1,0,0.,4.8,0.,4.8,0.,4.8,0.,4.8
1979-08-03 18:22:36.220 ,1,0,1.,4.8,0.,4.8,0.,4.8,0.,4.8
1979-08-03 18:22:41.020 ,1,0,0.,4.8,0.,4.8,0.,4.8,0.,4.8
1979-08-03 18:22:45.820 ,1,0,2.,4.8,0.,4.8,0.,4.8,0.,4.8
1979-08-03 18:22:50.620 ,1,0,0.,4.8,0.,4.8,0.,4.8,0.,4.8
1979-08-03 18:22:55.420 ,1,0,0.,4.8,0.,4.8,0.,4.8,0.,4.8
1979-08-03 18:23:00.220 ,1,0,0.,4.8,0.,4.8,0.,4.8,0.,4.8
1979-08-03 18:23:05.020 ,1,0,0.,4.8,0.,4.8,1.,4.8,0.,4.8
1979-08-03 18:23:09.820 ,0,0,0.,4.8,0.,4.8,0.,4.8,0.,4.8
1979-08-03 18:23:14.620 ,0,0,0.,4.8,0.,4.8,0.,4.8,0.,4.8
1979-08-03 18:23:19.420 ,0,0,0.,4.8,0.,4.8,0.,4.8,0.,4.8
1979-08-03 18:23:24.220 ,0,0,1.,4.8,0.,4.8,0.,4.8,0.,4.8
1979-08-03 18:23:29.020 ,0,0,1.,4.8,0.,4.8,0.,4.8,0.,4.8
1979-08-03 18:23:33.820 ,0,0,0.,4.8,0.,4.8,0.,4.8,0.,4.8
1979-08-03 18:23:38.620 ,0,0,0.,4.8,0.,4.8,0.,4.8,0.,4.8
1979-08-03 18:23:43.420 ,0,0,0.,4.8,0.,4.8,0.,4.8,0.,4.8
1979-08-03 18:23:48.220 ,0,0,0.,4.8,0.,4.8,0.,4.8,0.,4.8
1979-08-03 18:23:53.020 ,0,0,0.,4.8,0.,4.8,0.,4.8,0.,4.8
1979-08-03 18:23:57.820 ,0,0,0.,4.8,0.,4.8,0.,4.8,0.,4.8
1979-08-03 18:24:02.620 ,0,0,0.,4.8,0.,4.8,0.,4.8,0.,4.8
1979-08-03 18:24:07.420 ,0,0,0.,4.8,0.,4.8,0.,4.8,0.,4.8
1979-08-03 18:24:12.220 ,0,0,0.,4.8,0.,4.8,1.,4.8,0.,4.8
1979-08-03 18:24:17.020 ,0,0,1.,4.8,0.,4.8,0.,4.8,0.,4.8
1979-08-03 18:24:21.820 ,0,0,2.,4.8,0.,4.8,1.,4.8,0.,4.8
1979-08-03 18:24:26.620 ,0,0,0.,4.8,0.,4.8,0.,4.8,0.,4.8
1979-08-03 18:24:31.420 ,0,0,1.,4.8,0.,4.8,0.,4.8,0.,4.8
1979-08-03 18:24:36.220 ,0,0,1.,4.8,0.,4.8,0.,4.8,0.,4.8
1979-08-03 18:24:41.020 ,0,0,1.,4.8,0.,4.8,0.,4.8,0.,4.8
1979-08-03 18:24:45.820 ,1,0,0.,4.8,0.,4.8,0.,4.8,0.,4.8
1979-08-03 18:24:50.620 ,1,0,2.,4.8,0.,4.8,0.,4.8,0.,4.8
1979-08-03 18:24:55.420 ,1,0,0.,4.8,0.,4.8,0.,4.8,0.,4.8
1979-08-03 18:25:00.220 ,1,0,0.,4.8,0.,4.8,0.,4.8,0.,4.8
1979-08-03 18:25:05.020 ,1,0,3.,4.8,0.,4.8,1.,4.8,0.,4.8
1979-08-03 18:25:09.820 ,1,0,0.,4.8,0.,4.8,0.,4.8,0.,4.8
1979-08-03 18:25:14.620 ,1,0,0.,4.8,0.,4.8,0.,4.8,0.,4.8
1979-08-03 18:25:19.420 ,1,0,0.,4.8,0.,4.8,0.,4.8,0.,4.8
1979-08-03 18:25:24.220 ,1,0,0.,4.8,0.,4.8,0.,4.8,0.,4.8
1979-08-03 18:25:29.020 ,1,0,0.,4.8,0.,4.8,0.,4.8,0.,4.8
1979-08-03 18:25:33.820 ,2,0,0.,4.8,0.,4.8,1.,4.8,0.,4.8
1979-08-03 18:25:38.620 ,2,0,1.,4.8,0.,4.8,1.,4.8,0.,4.8
1979-08-03 18:25:43.420 ,2,0,0.,4.8,0.,4.8,0.,4.8,0.,4.8
1979-08-03 18:25:48.220 ,2,0,0.,4.8,0.,4.8,0.,4.8,0.,4.8
1979-08-03 18:25:53.020 ,2,0,2.,4.8,0.,4.8,0.,4.8,0.,4.8
1979-08-03 18:25:57.820 ,2,0,0.,4.8,0.,4.8,0.,4.8,0.,4.8
1979-08-03 18:26:02.620 ,2,0,0.,4.8,0.,4.8,0.,4.8,0.,4.8
1979-08-03 18:26:07.420 ,2,0,0.,4.8,0.,4.8,0.,4.8,0.,4.8
1979-08-03 18:26:12.220 ,2,0,0.,4.8,0.,4.8,0.,4.8,0.,4.8
1979-08-03 18:26:17.020 ,2,0,0.,4.8,0.,4.8,0.,4.8,0.,4.8
1979-08-03 18:26:21.820 ,3,0,0.,4.8,0.,4.8,0.,4.8,0.,4.8
1979-08-03 18:26:26.620 ,3,0,2.,4.8,0.,4.8,0.,4.8,0.,4.8
1979-08-03 18:26:31.420 ,3,0,0.,4.8,0.,4.8,0.,4.8,0.,4.8
1979-08-03 18:26:36.220 ,3,0,0.,4.8,1.,4.8,0.,4.8,0.,4.8
1979-08-03 18:26:41.020 ,3,0,0.,4.8,0.,4.8,0.,4.8,0.,4.8
1979-08-03 18:26:45.820 ,3,0,0.,4.8,0.,4.8,1.,4.8,0.,4.8
1979-08-03 18:26:50.620 ,3,0,1.,4.8,0.,4.8,0.,4.8,0.,4.8
1979-08-03 18:26:55.420 ,3,0,1.,4.8,0.,4.8,0.,4.8,0.,4.8
1979-08-03 18:27:00.220 ,3,0,0.,4.8,0.,4.8,1.,4.8,0.,4.8
1979-08-03 18:27:05.020 ,3,0,0.,4.8,0.,4.8,0.,4.8,0.,4.8
1979-08-03 18:27:09.820 ,4,0,0.,4.8,0.,4.8,0.,4.8,0.,4.8
1979-08-03 18:27:14.620 ,4,0,0.,4.8,0.,4.8,0.,4.8,0.,4.8
1979-08-03 18:27:19.420 ,4,0,0.,4.8,0.,4.8,0.,4.8,0.,4.8
1979-08-03 18:27:24.220 ,4,0,0.,4.8,0.,4.8,0.,4.8,0.,4.8
1979-08-03 18:27:29.020 ,4,0,1.,4.8,1.,4.8,0.,4.8,0.,4.8
1979-08-03 18:27:33.820 ,4,0,1.,4.8,0.,4.8,1.,4.8,0.,4.8
1979-08-03 18:27:38.620 ,4,0,0.,4.8,0.,4.8,0.,4.8,0.,4.8
1979-08-03 18:27:43.420 ,4,0,1.,4.8,0.,4.8,0.,4.8,0.,4.8
1979-08-03 18:27:48.220 ,4,0,1.,4.8,0.,4.8,0.,4.8,0.,4.8
1979-08-03 18:27:53.020 ,4,0,0.,4.8,0.,4.8,0.,4.8,0.,4.8
1979-08-03 18:27:57.820 ,5,0,0.,4.8,0.,4.8,0.,4.8,0.,4.8
1979-08-03 18:28:02.620 ,5,0,0.,4.8,0.,4.8,0.,4.8,0.,4.8
1979-08-03 18:28:07.420 ,5,0,1.,4.8,0.,4.8,1.,4.8,0.,4.8
1979-08-03 18:28:12.220 ,5,0,0.,4.8,0.,4.8,0.,4.8,0.,4.8
1979-08-03 18:28:17.020 ,5,0,1.,4.8,0.,4.8,0.,4.8,0.,4.8
1979-08-03 18:28:21.820 ,5,0,0.,4.8,0.,4.8,0.,4.8,0.,4.8
1979-08-03 18:28:26.620 ,5,0,0.,4.8,0.,4.8,0.,4.8,0.,4.8
1979-08-03 18:28:31.420 ,5,0,0.,4.8,0.,4.8,1.,4.8,0.,4.8
1979-08-03 18:28:36.220 ,5,0,0.,4.8,0.,4.8,0.,4.8,0.,4.8
1979-08-03 18:28:41.020 ,5,0,2.,4.8,0.,4.8,0.,4.8,0.,4.8
1979-08-03 18:28:45.820 ,6,0,1.,4.8,0.,4.8,0.,4.8,0.,4.8
1979-08-03 18:28:50.620 ,6,0,0.,4.8,0.,4.8,1.,4.8,0.,4.8
1979-08-03 18:28:55.420 ,6,0,0.,4.8,0.,4.8,0.,4.8,0.,4.8
1979-08-03 18:29:00.220 ,6,0,0.,4.8,0.,4.8,0.,4.8,0.,4.8
1979-08-03 18:29:05.020 ,6,0,0.,4.8,0.,4.8,0.,4.8,0.,4.8
1979-08-03 18:29:09.820 ,6,0,0.,4.8,0.,4.8,0.,4.8,0.,4.8
1979-08-03 18:29:14.620 ,6,0,0.,4.8,0.,4.8,0.,4.8,0.,4.8
1979-08-03 18:29:19.420 ,6,0,1.,4.8,0.,4.8,0.,4.8,0.,4.8
1979-08-03 18:29:24.220 ,6,0,0.,4.8,0.,4.8,0.,4.8,0.,4.8
1979-08-03 18:29:29.020 ,6,0,0.,4.8,0.,4.8,0.,4.8,0.,4.8
1979-08-03 18:29:33.820 ,7,0,0.,4.8,0.,4.8,0.,4.8,0.,4.8
1979-08-03 18:29:38.620 ,7,0,2.,4.8,0.,4.8,0.,4.8,0.,4.8
1979-08-03 18:29:43.420 ,7,0,0.,4.8,0.,4.8,1.,4.8,0.,4.8
1979-08-03 18:29:48.220 ,7,0,2.,4.8,0.,4.8,0.,4.8,0.,4.8
1979-08-03 18:29:53.020 ,7,0,0.,4.8,0.,4.8,0.,4.8,0.,4.8
1979-08-03 18:29:57.820 ,7,0,2.,4.8,0.,4.8,0.,4.8,0.,4.8
1979-08-03 18:30:02.620 ,7,0,0.,4.8,0.,4.8,0.,4.8,0.,4.8
1979-08-03 18:30:07.420 ,7,0,0.,4.8,0.,4.8,0.,4.8,0.,4.8
1979-08-03 18:30:12.220 ,7,0,0.,4.8,0.,4.8,1.,4.8,0.,4.8
1979-08-03 18:30:17.020 ,7,0,0.,4.8,0.,4.8,0.,4.8,0.,4.8
1979-08-03 18:30:21.820 ,7,0,0.,4.8,0.,4.8,0.,4.8,0.,4.8
1979-08-03 18:30:26.620 ,7,0,0.,4.8,0.,4.8,1.,4.8,0.,4.8
1979-08-03 18:30:31.420 ,7,0,1.,4.8,0.,4.8,0.,4.8,0.,4.8
1979-08-03 18:30:36.220 ,7,0,1.,4.8,0.,4.8,1.,4.8,0.,4.8
1979-08-03 18:30:41.020 ,7,0,0.,4.8,0.,4.8,0.,4.8,0.,4.8
1979-08-03 18:30:45.820 ,7,0,0.,4.8,0.,4.8,0.,4.8,0.,4.8
1979-08-03 18:30:50.620 ,7,0,0.,4.8,0.,4.8,0.,4.8,0.,4.8
1979-08-03 18:30:55.420 ,7,0,0.,4.8,0.,4.8,0.,4.8,0.,4.8
1979-08-03 18:31:00.220 ,7,0,2.,4.8,0.,4.8,1.,4.8,0.,4.8
1979-08-03 18:31:05.020 ,7,0,1.,4.8,0.,4.8,0.,4.8,0.,4.8
1979-08-03 18:31:09.820 ,6,0,0.,4.8,0.,4.8,0.,4.8,0.,4.8
1979-08-03 18:31:14.620 ,6,0,1.,4.8,0.,4.8,1.,4.8,0.,4.8
1979-08-03 18:31:19.420 ,6,0,0.,4.8,0.,4.8,0.,4.8,0.,4.8
1979-08-03 18:31:24.220 ,6,0,0.,4.8,0.,4.8,0.,4.8,0.,4.8
1979-08-03 18:31:29.020 ,6,0,1.,4.8,0.,4.8,0.,4.8,0.,4.8
1979-08-03 18:31:33.820 ,6,0,1.,4.8,0.,4.8,0.,4.8,0.,4.8
1979-08-03 18:31:38.620 ,6,0,0.,4.8,0.,4.8,0.,4.8,0.,4.8
1979-08-03 18:31:43.420 ,6,0,1.,4.8,0.,4.8,0.,4.8,0.,4.8
1979-08-03 18:31:48.220 ,6,0,1.,4.8,0.,4.8,0.,4.8,0.,4.8
1979-08-03 18:31:53.020 ,6,0,0.,4.8,0.,4.8,1.,4.8,0.,4.8
1979-08-03 18:31:57.820 ,5,0,2.,4.8,0.,4.8,0.,4.8,0.,4.8
1979-08-03 18:32:02.620 ,5,0,0.,4.8,0.,4.8,0.,4.8,0.,4.8
1979-08-03 18:32:07.420 ,5,0,0.,4.8,0.,4.8,0.,4.8,0.,4.8
1979-08-03 18:32:12.220 ,5,0,0.,4.8,0.,4.8,0.,4.8,0.,4.8
1979-08-03 18:32:17.020 ,5,0,2.,4.8,0.,4.8,1.,4.8,0.,4.8
1979-08-03 18:32:21.820 ,5,0,0.,4.8,0.,4.8,0.,4.8,1.,4.8
1979-08-03 18:32:26.620 ,5,0,1.,4.8,0.,4.8,0.,4.8,0.,4.8
1979-08-03 18:32:31.420 ,5,0,2.,4.8,0.,4.8,2.,4.8,0.,4.8
1979-08-03 18:32:36.220 ,5,0,0.,4.8,0.,4.8,0.,4.8,0.,4.8
1979-08-03 18:32:41.020 ,5,0,1.,4.8,0.,4.8,0.,4.8,0.,4.8
1979-08-03 18:32:45.820 ,4,0,0.,4.8,0.,4.8,0.,4.8,0.,4.8
1979-08-03 18:32:50.620 ,4,0,1.,4.8,0.,4.8,0.,4.8,0.,4.8
1979-08-03 18:32:55.420 ,4,0,2.,4.8,0.,4.8,0.,4.8,0.,4.8
1979-08-03 18:33:00.220 ,4,0,0.,4.8,0.,4.8,0.,4.8,0.,4.8
1979-08-03 18:33:05.020 ,4,0,0.,4.8,0.,4.8,0.,4.8,0.,4.8
1979-08-03 18:33:09.820 ,4,0,1.,4.8,0.,4.8,0.,4.8,0.,4.8
1979-08-03 18:33:14.620 ,4,0,0.,4.8,0.,4.8,2.,4.8,0.,4.8